GW1701 Weather Reports


Display with metric or nautical units.
time (UTC)temp
F
wind
direction
speed
MPH
gust
MPH
rain 1hr
in
rain 24hr
in
rain mn
in
humidity
%
barometer
mb
20260505230348 82 207 2.0 3.0 0.00 0.00 0.00 79 1005.3
20260505225845 82 145 0.0 2.0 0.00 0.00 0.00 79 1005.4
20260505225342 83 241 4.0 6.0 0.00 0.00 0.00 78 1005.4
20260505224837 83 72 1.0 2.0 0.00 0.00 0.00 78 1005.5
20260505224335 83 135 1.0 2.0 0.00 0.00 0.00 78 1005.3
20260505223832 83 183 3.0 5.0 0.00 0.00 0.00 78 1005.4
20260505223329 83 87 1.0 2.0 0.00 0.00 0.00 78 1005.3
20260505222825 83 220 5.0 6.0 0.00 0.00 0.00 78 1005.4
20260505222321 83 159 3.0 3.0 0.00 0.00 0.00 78 1005.5
20260505221818 83 158 3.0 5.0 0.00 0.00 0.00 78 1005.5
20260505221315 83 109 1.0 2.0 0.00 0.00 0.00 77 1005.5
20260505220812 84 200 5.0 9.0 0.00 0.00 0.00 76 1005.7
20260505220309 84 59 3.0 5.0 0.00 0.00 0.00 77 1005.8
20260505215807 84 157 1.0 2.0 0.00 0.00 0.00 77 1005.6
20260505215305 84 230 3.0 3.0 0.00 0.00 0.00 77 1006.0
20260505214802 84 227 5.0 8.0 0.00 0.00 0.00 76 1005.8
20260505214300 84 221 6.0 9.0 0.00 0.00 0.00 76 1005.7
20260505213756 84 152 5.0 9.0 0.00 0.00 0.00 76 1005.7
20260505213254 84 155 0.0 2.0 0.00 0.00 0.00 77 1005.8
20260505212749 83 132 0.0 2.0 0.00 0.00 0.00 79 1006.2
20260505212247 83 189 3.0 3.0 0.00 0.00 0.00 78 1006.1
20260505211744 83 202 3.0 5.0 0.00 0.00 0.00 79 1006.1
20260505211242 83 203 3.0 5.0 0.00 0.00 0.00 78 1006.0
20260505210737 82 88 2.0 3.0 0.00 0.00 0.00 79 1006.3
20260505210235 82 129 3.0 5.0 0.00 0.00 0.00 78 1006.5
20260505205732 83 222 6.0 8.0 0.00 0.00 0.00 78 1006.6
20260505205230 82 189 4.0 6.0 0.00 0.00 0.00 79 1006.5
20260505204726 82 176 4.0 6.0 0.00 0.00 0.00 80 1006.7
20260505204224 83 119 2.0 3.0 0.00 0.00 0.00 79 1006.6
20260505203721 83 147 1.0 2.0 0.00 0.00 0.00 79 1006.6
20260505203218 84 120 2.0 3.0 0.00 0.00 0.00 77 1006.9
20260505202714 84 257 1.0 2.0 0.00 0.00 0.00 79 1007.0
20260505202210 83 200 3.0 6.0 0.00 0.00 0.00 77 1007.0
20260505201706 82 225 0.0 2.0 0.00 0.00 0.00 80 1006.9
20260505201205 82 136 5.0 8.0 0.00 0.00 0.00 79 1007.0
20260505200702 81 152 2.0 3.0 0.00 0.00 0.00 81 1007.1
20260505200159 81 91 4.0 6.0 0.00 0.00 0.00 80 1007.2
20260505195655 80 113 1.0 2.0 0.00 0.00 0.00 81 1007.0
20260505195152 80 239 2.0 2.0 0.00 0.00 0.00 83 1007.3
20260505194649 80 237 3.0 6.0 0.00 0.00 0.00 81 1007.5
20260505194145 81 169 2.0 3.0 0.00 0.00 0.00 82 1007.5
20260505193642 80 90 0.0 2.0 0.00 0.00 0.00 82 1007.3
20260505193139 80 214 3.0 6.0 0.00 0.00 0.00 82 1007.5
20260505192638 80 225 2.0 3.0 0.00 0.00 0.00 83 1007.7
20260505192135 80 88 2.0 2.0 0.00 0.00 0.00 83 1007.9
20260505191633 79 106 1.0 2.0 0.00 0.00 0.00 84 1007.8
20260505191131 79 83 0.0 2.0 0.00 0.00 0.00 84 1007.8
20260505190627 78 180 3.0 5.0 0.00 0.00 0.00 84 1007.7
20260505190127 78 90 0.0 0.0 0.00 0.00 0.00 84 1007.8
20260505185624 78 114 1.0 2.0 0.00 0.00 0.00 85 1007.9
20260505185121 78 103 1.0 2.0 0.00 0.00 0.00 85 1007.9
20260505184617 78 93 1.0 2.0 0.00 0.00 0.00 85 1008.0
20260505184114 78 217 5.0 6.0 0.00 0.00 0.00 84 1008.2
20260505183610 78 82 1.0 2.0 0.00 0.00 0.00 85 1008.0
20260505183108 78 116 2.0 3.0 0.00 0.00 0.00 84 1008.2
20260505182604 78 138 1.0 2.0 0.00 0.00 0.00 84 1008.1
20260505182101 78 192 3.0 9.0 0.00 0.00 0.00 86 1008.3
20260505181558 77 116 1.0 2.0 0.00 0.00 0.00 87 1008.1
20260505181055 77 62 2.0 2.0 0.00 0.00 0.00 86 1008.4
20260505180550 77 235 2.0 3.0 0.00 0.00 0.00 86 1008.2
20260505180049 78 216 7.0 8.0 0.00 0.00 0.00 85 1008.4
20260505175549 78 223 3.0 3.0 0.00 0.00 0.00 85 1008.3
20260505175046 78 167 2.0 3.0 0.00 0.00 0.00 86 1008.2
20260505174538 77 164 4.0 5.0 0.00 0.00 0.00 86 1008.3
20260505174034 76 106 1.0 2.0 0.00 0.00 0.00 87 1008.6
20260505173531 76 167 4.0 5.0 0.00 0.00 0.00 88 1008.6
20260505173028 76 191 3.0 6.0 0.00 0.00 0.00 88 1008.7
20260505172526 76 121 2.0 3.0 0.00 0.00 0.00 88 1008.5
20260505172021 75 206 2.0 3.0 0.00 0.00 0.00 89 1008.5
20260505171517 75 112 4.0 6.0 0.00 0.00 0.00 89 1008.5
20260505171014 75 351 2.0 3.0 0.00 0.00 0.00 90 1008.6
20260505170510 75 196 2.0 3.0 0.00 0.00 0.00 90 1008.7
20260505170006 75 134 1.0 2.0 0.00 0.00 0.00 90 1008.9
20260505165502 74 180 1.0 3.0 0.00 0.00 0.00 90 1009.0
20260505164958 74 207 2.0 2.0 0.00 0.00 0.00 91 1008.5
20260505164454 75 140 3.0 3.0 0.00 0.00 0.00 90 1008.7
20260505163953 75 73 1.0 3.0 0.00 0.00 0.00 90 1008.9
20260505163451 75 120 2.0 3.0 0.00 0.00 0.00 89 1008.7
20260505162950 75 308 2.0 3.0 0.00 0.00 0.00 90 1008.5
20260505162445 75 180 4.0 6.0 0.00 0.00 0.00 90 1008.8
20260505161942 74 121 2.0 3.0 0.00 0.00 0.00 91 1009.2
20260505161438 74 217 2.0 3.0 0.00 0.00 0.00 92 1008.8
20260505160935 73 64 3.0 5.0 0.00 0.00 0.00 92 1008.8
20260505160434 73 146 4.0 6.0 0.00 0.00 0.00 93 1008.9
20260505152910 73 78 1.0 2.0 0.00 0.00 0.00 93 1008.8
20260505152407 73 346 3.0 5.0 0.00 0.00 0.00 93 1008.7
20260505151907 73 90 2.0 3.0 0.00 0.00 0.00 94 1008.5
20260505151404 72 180 4.0 6.0 0.00 0.00 0.00 94 1008.4
20260505150901 72 186 3.0 5.0 0.00 0.00 0.00 94 1008.7
20260505150358 72 88 0.0 2.0 0.00 0.00 0.00 94 1008.4
20260505140322 72 215 2.0 3.0 0.00 0.00 0.00 94 1008.2
20260505130240 71 212 2.0 3.0 0.00 0.00 0.00 95 1008.2
20260505124731 70 99 0.0 0.0 0.00 0.00 0.00 95 1007.7
20260505124228 70 120 1.0 2.0 0.00 0.00 0.00 95 1007.7
20260505123723 70 340 3.0 5.0 0.00 0.00 0.00 95 1007.5
20260505123220 70 94 0.0 0.0 0.00 0.00 0.00 95 1007.3
20260505122717 70 224 4.0 5.0 0.00 0.00 0.00 95 1007.3
20260505122214 70 107 2.0 3.0 0.00 0.00 0.00 94 1007.5
20260505121710 70 102 0.0 2.0 0.00 0.00 0.00 94 1007.0
20260505121206 70 123 2.0 3.0 0.00 0.00 0.00 94 1007.0
20260505120703 70 186 2.0 3.0 0.00 0.00 0.00 94 1006.9
20260505120200 70 221 4.0 5.0 0.00 0.00 0.00 94 1007.0
20260505115658 70 181 0.0 2.0 0.00 0.00 0.00 94 1006.9
20260505115156 70 172 4.0 5.0 0.00 0.00 0.00 94 1006.8
20260505114654 70 119 2.0 3.0 0.00 0.00 0.00 94 1007.0
20260505114149 70 192 1.0 2.0 0.00 0.00 0.00 94 1007.1
20260505113646 70 142 2.0 5.0 0.00 0.00 0.00 94 1006.9
20260505113143 70 202 1.0 5.0 0.00 0.00 0.00 94 1006.6
20260505112639 70 101 1.0 2.0 0.00 0.00 0.00 94 1006.7
20260505112137 70 288 1.0 2.0 0.00 0.00 0.00 93 1006.9
20260505111631 70 77 0.0 0.0 0.00 0.00 0.00 93 1007.0
20260505111127 70 149 4.0 5.0 0.00 0.00 0.00 93 1007.2
20260505110623 70 127 5.0 8.0 0.00 0.00 0.00 93 1007.2
20260505110120 70 164 3.0 5.0 0.00 0.00 0.00 94 1007.2
20260505102056 69 98 1.0 2.0 0.00 0.00 0.00 93 1007.3
20260505101555 69 228 3.0 9.0 0.00 0.00 0.00 93 1007.2
20260505101051 69 159 1.0 3.0 0.00 0.00 0.00 93 1007.7
20260505100547 69 326 3.0 3.0 0.00 0.00 0.00 93 1007.6
20260505100044 70 164 2.0 3.0 0.00 0.00 0.00 93 1007.2
20260505095540 70 236 3.0 8.0 0.00 0.00 0.00 93 1007.2
20260505095037 70 107 1.0 2.0 0.00 0.00 0.00 93 1007.5
20260505094533 70 100 1.0 2.0 0.00 0.00 0.00 93 1007.6
20260505094030 70 262 0.0 2.0 0.00 0.00 0.00 93 1007.8
20260505093526 70 147 1.0 2.0 0.00 0.00 0.00 93 1007.3
20260505093024 70 225 4.0 5.0 0.00 0.00 0.00 93 1007.3
20260505092521 70 263 3.0 5.0 0.00 0.00 0.00 93 1007.6
20260505092019 70 202 4.0 5.0 0.00 0.00 0.00 93 1007.8
20260505091516 70 100 1.0 2.0 0.00 0.00 0.00 93 1007.8
20260505091014 70 103 4.0 6.0 0.00 0.00 0.00 93 1007.7
20260505090512 70 131 2.0 3.0 0.00 0.00 0.00 93 1007.5
20260505090009 70 97 2.0 3.0 0.00 0.00 0.00 93 1007.8
20260505085507 70 240 4.0 6.0 0.00 0.00 0.00 93 1007.6
20260505085005 70 47 1.0 2.0 0.00 0.00 0.00 93 1007.7
20260505084503 70 52 1.0 2.0 0.00 0.00 0.00 93 1007.7
20260505084001 70 110 2.0 3.0 0.00 0.00 0.00 93 1007.9
20260505083457 70 188 3.0 5.0 0.00 0.00 0.00 93 1007.9
20260505082954 70 108 1.0 2.0 0.00 0.00 0.00 93 1007.8
20260505082449 70 238 3.0 6.0 0.00 0.00 0.00 93 1007.9
20260505081947 70 198 1.0 2.0 0.00 0.00 0.00 93 1008.0
20260505081444 70 155 1.0 2.0 0.00 0.00 0.00 93 1008.0
20260505080940 70 112 3.0 5.0 0.00 0.00 0.00 93 1008.1
20260505080436 70 148 2.0 3.0 0.00 0.00 0.00 92 1007.9
20260505075932 70 121 3.0 5.0 0.00 0.00 0.00 92 1008.0
20260505075429 70 178 2.0 2.0 0.00 0.00 0.00 92 1008.2
20260505074926 70 142 3.0 5.0 0.00 0.00 0.00 92 1008.3
20260505074424 70 110 1.0 2.0 0.00 0.00 0.00 92 1008.3
20260505073920 70 107 2.0 2.0 0.00 0.00 0.00 92 1008.0
20260505073418 70 183 2.0 3.0 0.00 0.00 0.00 92 1008.2
20260505072915 70 155 2.0 3.0 0.00 0.00 0.00 92 1008.2
20260505072411 70 153 2.0 3.0 0.00 0.00 0.00 92 1008.4
20260505071908 70 188 3.0 5.0 0.00 0.00 0.00 92 1008.5
20260505071404 70 92 1.0 2.0 0.00 0.00 0.00 92 1008.5
20260505070902 70 140 3.0 6.0 0.00 0.00 0.00 92 1008.6
20260505070358 70 95 1.0 2.0 0.00 0.00 0.00 92 1008.5
20260505065854 70 120 1.0 3.0 0.00 0.00 0.00 92 1008.6
20260505065351 70 306 1.0 3.0 0.00 0.00 0.00 92 1008.8
20260505064848 70 99 1.0 2.0 0.00 0.00 0.00 91 1008.7
20260505064345 70 128 2.0 5.0 0.00 0.00 0.00 91 1008.9
20260505063843 70 155 2.0 3.0 0.00 0.00 0.00 92 1008.8
20260505063338 70 208 5.0 6.0 0.00 0.00 0.00 92 1008.9
20260505062835 70 84 2.0 3.0 0.00 0.00 0.00 92 1009.2
20260505062333 70 79 3.0 3.0 0.00 0.00 0.00 91 1009.0
20260505061829 70 89 0.0 0.0 0.00 0.00 0.00 91 1009.3
20260505061328 70 276 3.0 5.0 0.00 0.00 0.00 92 1009.4
20260505060825 70 148 8.0 12.0 0.00 0.00 0.00 92 1009.3
20260505060321 70 213 1.0 3.0 0.00 0.00 0.00 92 1009.3
20260505055817 70 101 3.0 6.0 0.00 0.00 0.00 92 1009.1
20260505055313 70 175 0.0 0.0 0.00 0.00 0.00 92 1009.2
20260505054811 69 126 1.0 2.0 0.00 0.00 0.00 92 1009.2
20260505054308 69 157 1.0 2.0 0.00 0.00 0.00 92 1009.2
20260505053806 70 102 1.0 2.0 0.00 0.00 0.00 92 1009.2
20260505053303 70 165 0.0 2.0 0.00 0.00 0.00 92 1009.0
20260505052800 70 256 3.0 3.0 0.00 0.00 0.00 92 1009.1
20260505052257 70 201 4.0 6.0 0.00 0.00 0.00 92 1009.2
20260505051754 70 221 2.0 3.0 0.00 0.00 0.00 92 1009.0
20260505051252 70 87 0.0 2.0 0.00 0.00 0.00 91 1009.2
20260505050749 70 114 1.0 2.0 0.00 0.00 0.00 91 1009.1
20260505050248 70 113 1.0 2.0 0.00 0.00 0.00 91 1009.1
20260505041717 71 233 2.0 5.0 0.00 0.00 0.00 88 1009.2
20260505041215 71 172 2.0 3.0 0.00 0.00 0.00 88 1009.3
20260505040712 72 191 3.0 5.0 0.00 0.00 0.00 88 1009.0
20260505040209 72 214 1.0 2.0 0.00 0.00 0.00 88 1009.2
20260505035706 72 128 2.0 3.0 0.00 0.00 0.00 87 1009.1
20260505035202 72 97 2.0 2.0 0.00 0.00 0.00 87 1009.1
20260505034659 72 112 2.0 3.0 0.00 0.00 0.00 87 1009.1
20260505034156 72 120 0.0 2.0 0.00 0.00 0.00 87 1009.2
20260505033652 72 195 1.0 2.0 0.00 0.00 0.00 86 1008.9
20260505033150 72 128 2.0 3.0 0.00 0.00 0.00 86 1009.1
20260505032648 73 112 1.0 2.0 0.00 0.00 0.00 86 1008.9
20260505032144 73 251 1.0 2.0 0.00 0.00 0.00 86 1009.3
20260505031642 73 167 2.0 3.0 0.00 0.00 0.00 86 1009.1
20260505031138 73 105 1.0 2.0 0.00 0.00 0.00 85 1009.1
20260505030635 73 203 1.0 3.0 0.00 0.00 0.00 85 1009.0
20260505030131 73 187 3.0 5.0 0.00 0.00 0.00 85 1009.1
20260505025627 73 169 2.0 3.0 0.00 0.00 0.00 85 1009.1
20260505025126 73 194 2.0 3.0 0.00 0.00 0.00 85 1008.8
20260505024623 73 108 2.0 3.0 0.00 0.00 0.00 84 1008.8
20260505024120 73 129 1.0 2.0 0.00 0.00 0.00 84 1008.8
20260505023617 73 196 2.0 3.0 0.00 0.00 0.00 84 1008.9
20260505023115 73 106 0.0 0.0 0.00 0.00 0.00 83 1008.8
20260505022612 74 176 2.0 3.0 0.00 0.00 0.00 83 1009.0
20260505022108 74 190 3.0 5.0 0.00 0.00 0.00 83 1008.6
20260505021605 74 96 0.0 0.0 0.00 0.00 0.00 82 1008.7
20260505021102 74 205 3.0 6.0 0.00 0.00 0.00 82 1008.9
20260505020603 74 117 1.0 2.0 0.00 0.00 0.00 82 1008.7
20260505020059 74 106 1.0 2.0 0.00 0.00 0.00 81 1008.6
20260505015556 74 170 1.0 2.0 0.00 0.00 0.00 81 1008.8
20260505015053 74 169 2.0 3.0 0.00 0.00 0.00 81 1008.6
20260505014550 74 108 0.0 0.0 0.00 0.00 0.00 81 1008.6
20260505014047 74 89 1.0 2.0 0.00 0.00 0.00 80 1008.8
20260505013544 75 98 2.0 3.0 0.00 0.00 0.00 80 1008.6
20260505013041 75 198 2.0 3.0 0.00 0.00 0.00 80 1008.9
20260505012539 75 206 2.0 3.0 0.00 0.00 0.00 79 1008.5
20260505012036 75 109 0.0 0.0 0.00 0.00 0.00 79 1008.5
20260505011536 75 121 2.0 3.0 0.00 0.00 0.00 78 1008.5
20260505011034 76 137 2.0 3.0 0.00 0.00 0.00 77 1008.5
20260505010529 76 141 3.0 5.0 0.00 0.00 0.00 76 1008.5
20260505010026 76 117 2.0 3.0 0.00 0.00 0.00 75 1008.5
20260505005522 77 169 2.0 3.0 0.00 0.00 0.00 75 1008.5
20260505005020 77 235 2.0 2.0 0.00 0.00 0.00 74 1008.6
20260505004517 77 130 2.0 3.0 0.00 0.00 0.00 74 1008.6
20260505004014 77 137 1.0 2.0 0.00 0.00 0.00 73 1008.5
20260505003511 78 152 4.0 5.0 0.00 0.00 0.00 72 1008.4
20260505003008 78 286 1.0 3.0 0.00 0.00 0.00 72 1008.3
20260505002503 78 150 5.0 8.0 0.00 0.00 0.00 71 1008.4
20260505002002 78 211 3.0 3.0 0.00 0.00 0.00 71 1008.2
20260505001459 78 259 3.0 5.0 0.00 0.00 0.00 71 1008.3
20260505000955 78 91 3.0 3.0 0.00 0.00 0.00 70 1008.4
20260505000454 79 205 7.0 9.0 0.00 0.00 0.00 69 1008.5
20260504235950 79 244 2.0 3.0 0.00 0.00 0.00 69 1008.6
20260504235448 79 279 3.0 5.0 0.00 0.00 0.00 69 1008.6
20260504234944 79 28 1.0 2.0 0.00 0.00 0.00 69 1008.7
20260504234441 79 125 2.0 3.0 0.00 0.00 0.00 69 1008.8
20260504233938 79 213 3.0 5.0 0.00 0.00 0.00 69 1008.7
20260504233433 79 98 3.0 6.0 0.00 0.00 0.00 69 1008.9
20260504232931 80 199 3.0 3.0 0.00 0.00 0.00 68 1008.7
20260504232428 80 118 6.0 11.0 0.00 0.00 0.00 67 1008.9
20260504231925 80 27 2.0 3.0 0.00 0.00 0.00 67 1008.8
20260504231421 80 169 5.0 8.0 0.00 0.00 0.00 67 1009.0
20260504230917 80 269 4.0 6.0 0.00 0.00 0.00 67 1009.1